Location: Donald C. Martin Observatory
(38.3885°N, 82.3916°W)
Time: 08:10:05
(UTC-04:00)

Cosmos 1484 Rocket - Visible Passes

Search period start: 01 September 2015 00:00
Search period end: 11 September 2015 00:00
Orbit: 511 x 566 km, 97.4° (Epoch: 31 August)

Date Brightness Start Highest point End Pass type
(mag) Time Alt. Az. Time Alt. Az. Time Alt. Az.
01 Sep 3.2 20:28:34 10° S 20:32:35 73° WSW 20:36:39 10° NNW visible
02 Sep 2.9 20:20:47 10° SSE 20:24:50 89° ENE 20:28:54 10° NNW visible
05 Sep 6.0 21:34:34 10° WSW 21:36:24 12° W 21:38:01 10° WNW visible
06 Sep 5.8 21:26:02 10° SW 21:28:32 15° W 21:30:52 10° NW visible
07 Sep 5.7 21:17:44 10° SW 21:20:40 19° W 21:23:29 10° NW visible
08 Sep 5.4 21:09:33 10° SSW 21:12:49 23° W 21:16:01 10° NW visible
09 Sep 5.0 21:01:27 10° SSW 21:04:58 28° W 21:08:27 10° NW visible
10 Sep 4.6 20:53:25 10° SSW 20:57:08 34° W 21:00:49 10° NNW visible
